HAZ7534 VTSP-ZSPD

Flight info

Callsign HAZ7534
Flight time N/A
Altitude 39000
Route ONETI1A ONETI R575 PAPRA/K0906F390 A1 IKELA/N0488F390 DCT MORTU DCT NOBAD DCT SANKU/N0487F400 DCT SOUSA/N0488F390 V601 DOTMI/K0902S1190 A470 BEBEM/K0898S1250 A470 LJG B221 SHZ W58 BK BK82A
Aircraft A359/H-SDE2E3GHIJ3J4J5LM1ORWXY/LB1D1

Departure

Time 2026-05-08 16:33
Airport Phuket International Airport (VTSP)

Arrival

Time N/A
Airport Shanghai Pudong International Airport (ZSPD)
Time Latitude Longitude Altitude Speed Heading
2026-05-08 16:19 8.10974 98.30581 34 ft 0 kts 174°
2026-05-08 16:25 8.10994 98.30579 34 ft 4 kts 174°
2026-05-08 16:25 8.11021 98.30576 31 ft 4 kts 178°
2026-05-08 16:26 8.11047 98.30579 31 ft 4 kts 213°
2026-05-08 16:26 8.11056 98.30594 30 ft 4 kts 264°
2026-05-08 16:26 8.11058 98.30614 30 ft 0 kts 264°
2026-05-08 16:29 8.11058 98.30613 30 ft 1 kts 264°
2026-05-08 16:29 8.11057 98.30600 30 ft 4 kts 264°
2026-05-08 16:29 8.11051 98.30546 34 ft 12 kts 264°
2026-05-08 16:30 8.11041 98.30435 33 ft 19 kts 265°
2026-05-08 16:30 8.11095 98.30355 33 ft 13 kts 346°
2026-05-08 16:30 8.11182 98.30352 33 ft 7 kts 20°
2026-05-08 16:30 8.11192 98.30369 33 ft 2 kts 71°
2026-05-08 16:31 8.11196 98.30387 33 ft 4 kts 81°
2026-05-08 16:31 8.11202 98.30417 33 ft 5 kts 81°
2026-05-08 16:31 8.11203 98.30428 33 ft 0 kts 84°
2026-05-08 16:32 8.11214 98.30543 34 ft 47 kts 84°
2026-05-08 16:32 8.11266 98.31096 36 ft 109 kts 84°
2026-05-08 16:32 8.11356 98.32037 65 ft 158 kts 84°
2026-05-08 16:32 8.11461 98.33148 626 ft 158 kts 83°
2026-05-08 16:33 8.11558 98.34243 1212 ft 156 kts 83°
2026-05-08 16:33 8.11668 98.35400 1581 ft 176 kts 83°
2026-05-08 16:33 8.11795 98.36713 1799 ft 200 kts 83°
2026-05-08 16:33 8.11938 98.38200 2026 ft 227 kts 84°
2026-05-08 16:34 8.12095 98.39864 2309 ft 248 kts 84°
2026-05-08 16:34 8.12261 98.41636 2827 ft 258 kts 84°
2026-05-08 16:34 8.12430 98.43443 3537 ft 259 kts 85°
2026-05-08 16:34 8.12600 98.45264 4244 ft 261 kts 85°
2026-05-08 16:35 8.12772 98.47101 4911 ft 265 kts 85°
2026-05-08 16:35 8.12946 98.48959 5573 ft 268 kts 85°
2026-05-08 16:35 8.13122 98.50842 6251 ft 271 kts 85°
2026-05-08 16:35 8.13299 98.52740 6895 ft 273 kts 85°
2026-05-08 16:36 8.13479 98.54658 7563 ft 276 kts 85°
2026-05-08 16:36 8.13659 98.56592 8262 ft 278 kts 85°
2026-05-08 16:36 8.13843 98.58545 8981 ft 280 kts 85°
2026-05-08 16:36 8.14200 98.60488 9673 ft 285 kts 72°
2026-05-08 16:37 8.15149 98.62264 10184 ft 295 kts 53°
2026-05-08 16:37 8.16563 98.63854 10471 ft 314 kts 47°
2026-05-08 16:37 8.18148 98.65462 10725 ft 332 kts 46°
2026-05-08 16:37 8.19814 98.67149 10974 ft 348 kts 46°
2026-05-08 16:38 8.21546 98.68922 11258 ft 360 kts 46°
2026-05-08 16:38 8.23315 98.70742 11723 ft 365 kts 47°
2026-05-08 16:38 8.25099 98.72583 12255 ft 369 kts 47°
2026-05-08 16:38 8.26893 98.74438 12877 ft 369 kts 47°
2026-05-08 16:39 8.28670 98.76325 13416 ft 372 kts 50°
2026-05-08 16:39 8.30173 98.78458 13871 ft 374 kts 62°
2026-05-08 16:39 8.31333 98.80815 14325 ft 376 kts 67°
2026-05-08 16:39 8.32351 98.83256 14763 ft 379 kts 69°
2026-05-08 16:40 8.33306 98.85753 15217 ft 382 kts 70°
2026-05-08 16:40 8.34246 98.88274 15655 ft 385 kts 70°
2026-05-08 16:40 8.35198 98.90813 16088 ft 388 kts 70°
2026-05-08 16:40 8.36170 98.93366 16536 ft 391 kts 70°
2026-05-08 16:41 8.37161 98.95931 16958 ft 394 kts 69°
2026-05-08 16:41 8.38172 98.98518 17393 ft 397 kts 69°
2026-05-08 16:41 8.39195 99.01119 17801 ft 400 kts 69°
2026-05-08 16:42 8.41269 99.06377 18574 ft 406 kts 69°
2026-05-08 16:42 8.42318 99.09036 18944 ft 408 kts 69°
2026-05-08 16:42 8.43369 99.11701 19321 ft 410 kts 69°
2026-05-08 16:42 8.44421 99.14375 19696 ft 412 kts 69°
2026-05-08 16:43 8.45485 99.17079 20067 ft 414 kts 69°
2026-05-08 16:43 8.46551 99.19792 20421 ft 416 kts 69°
2026-05-08 16:43 8.47622 99.22517 20798 ft 418 kts 69°
2026-05-08 16:43 8.48697 99.25254 21166 ft 421 kts 69°
2026-05-08 16:44 8.49779 99.28009 21538 ft 423 kts 69°
2026-05-08 16:44 8.50867 99.30779 21906 ft 425 kts 69°
2026-05-08 16:44 8.51960 99.33564 22283 ft 428 kts 69°
2026-05-08 16:44 8.53058 99.36361 22654 ft 430 kts 69°
2026-05-08 16:45 8.54161 99.39171 23019 ft 432 kts 69°
2026-05-08 16:45 8.55300 99.41997 23382 ft 435 kts 67°
2026-05-08 16:45 8.56727 99.44701 23685 ft 438 kts 59°
2026-05-08 16:45 8.58572 99.47170 23981 ft 442 kts 49°
2026-05-08 16:46 8.60836 99.49282 24288 ft 446 kts 39°
2026-05-08 16:46 8.63394 99.51079 24573 ft 450 kts 34°
2026-05-08 16:46 8.66061 99.52759 24860 ft 453 kts 32°
2026-05-08 16:46 8.68781 99.54381 25192 ft 455 kts 32°
2026-05-08 16:47 8.71526 99.55988 25530 ft 457 kts 31°
2026-05-08 16:47 8.74285 99.57606 25873 ft 460 kts 32°
2026-05-08 16:47 8.77055 99.59242 26244 ft 462 kts 32°
2026-05-08 16:47 8.79834 99.60898 26601 ft 465 kts 32°
2026-05-08 16:48 8.82621 99.62570 26988 ft 467 kts 32°
2026-05-08 16:48 8.85384 99.64235 27345 ft 470 kts 32°
2026-05-08 16:48 8.88197 99.65933 27709 ft 472 kts 32°
2026-05-08 16:48 8.91065 99.67667 28066 ft 475 kts 32°
2026-05-08 16:49 8.93871 99.69363 28443 ft 478 kts 32°
2026-05-08 16:49 8.96769 99.71114 28804 ft 481 kts 32°
2026-05-08 16:49 8.99613 99.72833 29113 ft 484 kts 32°
2026-05-08 16:49 9.02513 99.74584 29443 ft 487 kts 32°
2026-05-08 16:50 9.05428 99.76345 29791 ft 489 kts 32°
2026-05-08 16:50 9.08396 99.78138 30108 ft 492 kts 32°
2026-05-08 16:50 9.11300 99.79893 30368 ft 494 kts 32°
2026-05-08 16:50 9.14291 99.81705 30655 ft 495 kts 32°
2026-05-08 16:51 9.17212 99.83474 30921 ft 497 kts 32°
2026-05-08 16:51 9.20223 99.85294 31180 ft 499 kts 32°
2026-05-08 16:51 9.23209 99.87098 31435 ft 500 kts 32°
2026-05-08 16:51 9.26164 99.88884 31673 ft 502 kts 32°
2026-05-08 16:52 9.29167 99.90700 31919 ft 504 kts 32°
2026-05-08 16:52 9.32181 99.92524 32149 ft 505 kts 32°
2026-05-08 16:52 9.35203 99.94354 32388 ft 507 kts 32°
2026-05-08 16:52 9.38222 99.96181 32728 ft 506 kts 31°
2026-05-08 16:53 9.44237 99.99824 33458 ft 502 kts 32°
2026-05-08 16:53 9.47231 100.01640 33792 ft 501 kts 32°
2026-05-08 16:53 9.50112 100.03618 34068 ft 499 kts 39°
2026-05-08 16:54 9.52693 100.05961 34312 ft 498 kts 47°
2026-05-08 16:54 9.54884 100.08666 34546 ft 497 kts 56°
2026-05-08 16:54 9.56609 100.11684 34770 ft 495 kts 65°
2026-05-08 16:54 9.57955 100.14897 35026 ft 494 kts 69°
2026-05-08 16:55 9.59180 100.18144 35279 ft 493 kts 70°
2026-05-08 16:55 9.60350 100.21405 35525 ft 492 kts 71°
2026-05-08 16:55 9.61502 100.24674 35772 ft 492 kts 71°
2026-05-08 16:55 9.62652 100.27932 36016 ft 491 kts 71°
2026-05-08 16:56 9.63807 100.31182 36256 ft 490 kts 71°
2026-05-08 16:56 9.64969 100.34423 36488 ft 489 kts 71°
2026-05-08 16:56 9.66135 100.37659 36734 ft 488 kts 71°
2026-05-08 16:56 9.67301 100.40883 36979 ft 487 kts 71°
2026-05-08 16:57 9.68469 100.44105 37169 ft 487 kts 70°
2026-05-08 16:57 9.69745 100.47288 37339 ft 488 kts 65°
2026-05-08 16:57 9.71406 100.50295 37515 ft 489 kts 57°
2026-05-08 16:57 9.73405 100.53077 37707 ft 489 kts 53°
2026-05-08 16:58 9.75510 100.55787 37889 ft 489 kts 52°
2026-05-08 16:58 9.77659 100.58457 38082 ft 489 kts 52°
2026-05-08 16:58 9.79827 100.61110 38262 ft 488 kts 52°
2026-05-08 16:58 9.81996 100.63756 38463 ft 488 kts 52°
2026-05-08 16:59 9.84157 100.66400 38625 ft 487 kts 52°
2026-05-08 16:59 9.86314 100.69048 38779 ft 486 kts 52°
2026-05-08 16:59 9.90615 100.74353 38908 ft 488 kts 52°
2026-05-08 17:00 9.94916 100.79676 38911 ft 488 kts 52°
2026-05-08 17:00 9.99215 100.84999 38914 ft 487 kts 52°
2026-05-08 17:01 10.03507 100.90318 38911 ft 487 kts 52°
2026-05-08 17:01 10.07802 100.95640 38911 ft 487 kts 52°
2026-05-08 17:02 10.12097 101.00965 38911 ft 487 kts 52°
2026-05-08 17:02 10.16393 101.06292 38908 ft 487 kts 52°
2026-05-08 17:03 10.20685 101.11618 38908 ft 487 kts 52°
2026-05-08 17:03 10.24907 101.17007 38909 ft 487 kts 53°
2026-05-08 17:04 10.29003 101.22486 38906 ft 487 kts 54°
2026-05-08 17:04 10.32405 101.27045 38906 ft 487 kts 53°
2026-05-08 17:05 10.36517 101.32517 38909 ft 488 kts 54°
2026-05-08 17:05 10.40631 101.37975 38905 ft 484 kts 53°
2026-05-08 17:06 10.44716 101.43387 38909 ft 482 kts 53°
2026-05-08 17:06 10.48794 101.48796 38908 ft 482 kts 53°
2026-05-08 17:07 10.52868 101.54202 38906 ft 482 kts 53°
2026-05-08 17:07 10.56943 101.59615 38905 ft 482 kts 53°
2026-05-08 17:08 10.61017 101.65029 38906 ft 482 kts 53°
2026-05-08 17:08 10.65091 101.70446 38907 ft 483 kts 53°
2026-05-08 17:09 10.69185 101.75890 38905 ft 485 kts 53°
2026-05-08 17:09 10.73286 101.81348 38907 ft 486 kts 53°
2026-05-08 17:10 10.77395 101.86822 38902 ft 487 kts 53°
2026-05-08 17:10 10.81507 101.92302 38900 ft 487 kts 53°
2026-05-08 17:11 10.85625 101.97781 38900 ft 487 kts 53°
2026-05-08 17:11 10.89740 102.03261 38900 ft 487 kts 53°
2026-05-08 17:12 10.93856 102.08748 38900 ft 488 kts 53°
2026-05-08 17:12 10.97976 102.14245 38900 ft 489 kts 53°
2026-05-08 17:13 11.02095 102.19744 38898 ft 489 kts 53°
2026-05-08 17:13 11.06222 102.25256 38900 ft 489 kts 53°
2026-05-08 17:14 11.10323 102.30772 38898 ft 487 kts 53°
2026-05-08 17:14 11.14401 102.36277 38895 ft 487 kts 53°
2026-05-08 17:15 11.18477 102.41780 38897 ft 487 kts 53°
2026-05-08 17:15 11.22563 102.47295 38897 ft 488 kts 53°
2026-05-08 17:16 11.26654 102.52819 38897 ft 488 kts 53°
2026-05-08 17:16 11.30744 102.58343 38898 ft 488 kts 53°
2026-05-08 17:17 11.34834 102.63871 38895 ft 488 kts 53°
2026-05-08 17:17 11.38923 102.69401 38894 ft 488 kts 53°
2026-05-08 17:18 11.43010 102.74930 38895 ft 488 kts 53°
2026-05-08 17:18 11.47100 102.80468 38899 ft 489 kts 53°
2026-05-08 17:19 11.51195 102.86016 38895 ft 490 kts 53°
2026-05-08 17:19 11.55294 102.91570 38895 ft 490 kts 53°
2026-05-08 17:20 11.59391 102.97126 38901 ft 490 kts 53°
2026-05-08 17:20 11.63544 103.02640 38910 ft 490 kts 50°
2026-05-08 17:21 11.68088 103.07829 38915 ft 491 kts 47°
2026-05-08 17:21 11.72717 103.12946 38914 ft 491 kts 48°
2026-05-08 17:22 11.77293 103.18112 38928 ft 490 kts 49°
2026-05-08 17:22 11.81821 103.23303 38934 ft 490 kts 49°
2026-05-08 17:23 11.86343 103.28509 38933 ft 490 kts 49°
2026-05-08 17:23 11.90865 103.33718 38941 ft 490 kts 49°
2026-05-08 17:24 11.95383 103.38920 38938 ft 490 kts 49°
2026-05-08 17:24 11.99907 103.44130 38938 ft 490 kts 49°
2026-05-08 17:25 12.04399 103.49306 38943 ft 490 kts 49°
2026-05-08 17:25 12.08929 103.54528 38930 ft 493 kts 49°
2026-05-08 17:26 12.13465 103.59760 38930 ft 492 kts 49°
2026-05-08 17:26 12.18009 103.65005 38909 ft 492 kts 49°
2026-05-08 17:27 12.22540 103.70237 38913 ft 492 kts 49°
2026-05-08 17:27 12.27138 103.75430 38912 ft 492 kts 47°
2026-05-08 17:28 12.31847 103.80511 38888 ft 492 kts 47°
2026-05-08 17:28 12.36553 103.85588 38891 ft 492 kts 47°
2026-05-08 17:29 12.41256 103.90704 38881 ft 494 kts 47°
2026-05-08 17:29 12.45938 103.95818 38883 ft 490 kts 47°
2026-05-08 17:30 12.50619 104.00945 38882 ft 489 kts 47°
2026-05-08 17:30 12.55270 104.06027 38878 ft 489 kts 47°
2026-05-08 17:31 12.59916 104.11108 38869 ft 489 kts 47°
2026-05-08 17:31 12.64561 104.16192 38872 ft 489 kts 47°
2026-05-08 17:32 12.69207 104.21280 38872 ft 489 kts 47°
2026-05-08 17:32 12.73848 104.26368 38869 ft 488 kts 47°
2026-05-08 17:33 12.78448 104.31412 38867 ft 487 kts 47°
2026-05-08 17:33 12.83099 104.36517 38872 ft 487 kts 47°
2026-05-08 17:34 12.87716 104.41592 38868 ft 487 kts 47°
2026-05-08 17:34 12.92300 104.46628 38867 ft 487 kts 47°
2026-05-08 17:35 12.96921 104.51701 38869 ft 487 kts 47°
2026-05-08 17:35 13.01538 104.56775 38870 ft 487 kts 47°
2026-05-08 17:36 13.06181 104.61884 38866 ft 487 kts 47°
2026-05-08 17:36 13.10797 104.66966 38870 ft 486 kts 47°
2026-05-08 17:37 13.15395 104.72032 38869 ft 485 kts 47°
2026-05-08 17:37 13.19988 104.77094 38868 ft 485 kts 47°
2026-05-08 17:38 13.24583 104.82162 38875 ft 485 kts 47°
2026-05-08 17:38 13.29176 104.87231 38876 ft 485 kts 47°
2026-05-08 17:39 13.33765 104.92298 38878 ft 485 kts 47°
2026-05-08 17:39 13.38356 104.97371 38871 ft 485 kts 47°
2026-05-08 17:40 13.42946 105.02447 38875 ft 485 kts 46°
2026-05-08 17:40 13.47538 105.07525 38878 ft 485 kts 46°
2026-05-08 17:41 13.52130 105.12608 38878 ft 485 kts 46°
2026-05-08 17:41 13.56726 105.17698 38874 ft 486 kts 46°
2026-05-08 17:42 13.61319 105.22789 38876 ft 485 kts 46°
2026-05-08 17:42 13.65908 105.27878 38875 ft 485 kts 46°
2026-05-08 17:43 13.70495 105.32968 38878 ft 484 kts 46°
2026-05-08 17:43 13.75072 105.38050 38883 ft 484 kts 46°
2026-05-08 17:44 13.79719 105.43069 38881 ft 484 kts 41°
2026-05-08 17:44 13.84778 105.47633 38881 ft 484 kts 40°
2026-05-08 17:45 13.89046 105.51356 38884 ft 484 kts 39°
2026-05-08 17:45 13.95062 105.56572 38883 ft 484 kts 39°
2026-05-08 17:46 14.00199 105.61039 38884 ft 484 kts 39°
2026-05-08 17:46 14.04474 105.64766 38887 ft 484 kts 40°
2026-05-08 17:47 14.09612 105.69251 38887 ft 485 kts 40°
2026-05-08 17:47 14.14742 105.73764 38886 ft 485 kts 40°
2026-05-08 17:48 14.19866 105.78291 38886 ft 485 kts 40°
2026-05-08 17:48 14.24988 105.82817 38889 ft 485 kts 40°
2026-05-08 17:49 14.30112 105.87346 38889 ft 485 kts 40°
2026-05-08 17:49 14.35194 105.91839 38890 ft 485 kts 40°
2026-05-08 17:50 14.40355 105.96404 38890 ft 485 kts 40°
2026-05-08 17:50 14.45482 106.00942 38889 ft 486 kts 40°
2026-05-08 17:51 14.50583 106.05459 38886 ft 486 kts 40°
2026-05-08 17:51 14.55716 106.10008 38890 ft 487 kts 40°
2026-05-08 17:52 14.60886 106.14593 38887 ft 487 kts 40°
2026-05-08 17:53 14.68549 106.21395 38892 ft 486 kts 40°
2026-05-08 17:53 14.73681 106.25953 38892 ft 486 kts 40°
2026-05-08 17:54 14.78806 106.30509 38902 ft 487 kts 40°
2026-05-08 17:54 14.83942 106.35077 38914 ft 487 kts 40°
2026-05-08 17:55 14.89066 106.39646 38905 ft 487 kts 40°
2026-05-08 17:55 14.94191 106.44225 38924 ft 487 kts 40°
2026-05-08 17:56 14.99313 106.48802 38927 ft 487 kts 40°
2026-05-08 17:56 15.04434 106.53381 38940 ft 487 kts 40°
2026-05-08 17:57 15.09552 106.57963 38935 ft 486 kts 40°
2026-05-08 17:57 15.14666 106.62543 38935 ft 486 kts 40°
2026-05-08 17:58 15.19783 106.67129 38937 ft 486 kts 40°
2026-05-08 17:58 15.24928 106.71743 38936 ft 486 kts 40°
2026-05-08 17:59 15.30033 106.76325 38934 ft 485 kts 40°
2026-05-08 17:59 15.35133 106.80906 38937 ft 485 kts 40°
2026-05-08 18:00 15.40239 106.85495 38940 ft 486 kts 40°
2026-05-08 18:00 15.47895 106.92381 38968 ft 486 kts 40°
2026-05-08 18:01 15.52997 106.96974 38966 ft 486 kts 40°
2026-05-08 18:01 15.58064 107.01538 38977 ft 486 kts 40°
2026-05-08 18:02 15.62335 107.05389 39004 ft 486 kts 40°
2026-05-08 18:02 15.68250 107.10724 39004 ft 484 kts 40°
2026-05-08 18:03 15.73284 107.15436 39002 ft 485 kts 46°
2026-05-08 18:03 15.77159 107.21151 39015 ft 487 kts 63°
2026-05-08 18:04 15.79474 107.27716 39013 ft 489 kts 71°
2026-05-08 18:04 15.81415 107.34498 39007 ft 490 kts 72°
2026-05-08 18:05 15.83313 107.41299 39005 ft 490 kts 72°
2026-05-08 18:05 15.85236 107.48083 38992 ft 489 kts 72°
2026-05-08 18:06 15.87173 107.54847 38995 ft 489 kts 72°
2026-05-08 18:06 15.89114 107.61618 38973 ft 489 kts 72°
2026-05-08 18:07 15.91048 107.68395 38973 ft 489 kts 72°
2026-05-08 18:07 15.92909 107.75190 38973 ft 489 kts 73°
2026-05-08 18:08 15.94741 107.81981 38962 ft 487 kts 73°
2026-05-08 18:08 15.96573 107.88747 38953 ft 486 kts 73°
2026-05-08 18:09 15.98438 107.95488 38948 ft 486 kts 72°
2026-05-08 18:09 16.00343 108.02224 38941 ft 486 kts 72°
2026-05-08 18:10 16.02244 108.08962 38938 ft 486 kts 72°
2026-05-08 18:10 16.04135 108.15699 38939 ft 485 kts 72°
2026-05-08 18:11 16.06857 108.22080 38938 ft 483 kts 57°
2026-05-08 18:11 16.10480 108.27959 38938 ft 483 kts 55°
2026-05-08 18:12 16.14248 108.33742 38938 ft 483 kts 55°
2026-05-08 18:12 16.18027 108.39524 38932 ft 483 kts 55°
2026-05-08 18:13 16.21785 108.45316 38929 ft 483 kts 55°
2026-05-08 18:13 16.25541 108.51133 38932 ft 485 kts 55°
2026-05-08 18:14 16.29303 108.56968 38933 ft 486 kts 55°
2026-05-08 18:14 16.33066 108.62808 38934 ft 486 kts 55°
2026-05-08 18:15 16.36830 108.68645 38930 ft 485 kts 54°
2026-05-08 18:15 16.40680 108.74423 38932 ft 485 kts 54°
2026-05-08 18:16 16.44555 108.80177 38935 ft 485 kts 54°
2026-05-08 18:16 16.48418 108.85945 38934 ft 485 kts 54°
2026-05-08 18:17 16.52241 108.91682 38925 ft 485 kts 53°
2026-05-08 18:17 16.56094 108.97473 38927 ft 486 kts 53°
2026-05-08 18:18 16.59910 109.03303 38933 ft 487 kts 54°
2026-05-08 18:18 16.63695 109.09155 38932 ft 487 kts 54°
2026-05-08 18:19 16.67483 109.15009 38934 ft 487 kts 54°
2026-05-08 18:19 16.71270 109.20854 38932 ft 486 kts 54°
2026-05-08 18:20 16.75059 109.26700 38932 ft 486 kts 54°
2026-05-08 18:20 16.78838 109.32537 38931 ft 486 kts 54°
2026-05-08 18:21 16.82631 109.38400 38933 ft 488 kts 54°
2026-05-08 18:21 16.86436 109.44284 38928 ft 489 kts 54°
2026-05-08 18:22 16.90247 109.50169 38932 ft 489 kts 54°
2026-05-08 18:22 16.94047 109.56044 38934 ft 488 kts 54°
2026-05-08 18:23 16.97844 109.61920 38930 ft 488 kts 54°
2026-05-08 18:23 17.01636 109.67794 38927 ft 488 kts 54°
2026-05-08 18:24 17.05428 109.73673 38934 ft 488 kts 54°
2026-05-08 18:24 17.09216 109.79551 38932 ft 488 kts 53°
2026-05-08 18:25 17.13019 109.85458 38931 ft 491 kts 53°
2026-05-08 18:25 17.16831 109.91383 38928 ft 491 kts 53°
2026-05-08 18:26 17.20642 109.97312 38930 ft 491 kts 53°
2026-05-08 18:26 17.24451 110.03245 38934 ft 491 kts 53°
2026-05-08 18:27 17.27000 110.07217 38936 ft 491 kts 53°
2026-05-08 18:27 17.32068 110.15121 38938 ft 491 kts 54°
2026-05-08 18:28 17.35873 110.21061 38930 ft 491 kts 54°
2026-05-08 18:28 17.39675 110.27002 38934 ft 493 kts 53°
2026-05-08 18:29 17.42849 110.31966 38936 ft 494 kts 53°
2026-05-08 18:29 17.46702 110.37910 38933 ft 494 kts 53°
2026-05-08 18:30 17.50579 110.43855 38934 ft 494 kts 53°
2026-05-08 18:30 17.54443 110.49801 38933 ft 494 kts 53°
2026-05-08 18:31 17.58307 110.55762 38931 ft 494 kts 53°
2026-05-08 18:31 17.62166 110.61726 38931 ft 494 kts 53°
2026-05-08 18:32 17.66023 110.67690 38931 ft 494 kts 53°
2026-05-08 18:32 17.69877 110.73656 38932 ft 494 kts 53°
2026-05-08 18:33 17.73730 110.79626 38928 ft 494 kts 53°
2026-05-08 18:33 17.77583 110.85600 38932 ft 495 kts 53°
2026-05-08 18:34 17.81436 110.91579 38932 ft 495 kts 53°
2026-05-08 18:34 17.85287 110.97562 38933 ft 495 kts 53°
2026-05-08 18:35 17.89132 111.03540 38930 ft 495 kts 53°
2026-05-08 18:35 17.92984 111.09535 38923 ft 495 kts 53°
2026-05-08 18:36 17.96832 111.15529 38934 ft 495 kts 53°
2026-05-08 18:36 18.00681 111.21529 38936 ft 495 kts 53°
2026-05-08 18:37 18.04529 111.27533 38922 ft 495 kts 53°
2026-05-08 18:37 18.08372 111.33536 38939 ft 495 kts 53°
2026-05-08 18:38 18.12217 111.39547 38940 ft 495 kts 53°
2026-05-08 18:38 18.16058 111.45558 38924 ft 495 kts 53°
2026-05-08 18:39 18.19896 111.51569 38931 ft 495 kts 53°
2026-05-08 18:39 18.23712 111.57550 38943 ft 496 kts 53°
2026-05-08 18:40 18.27579 111.63619 38931 ft 496 kts 53°
2026-05-08 18:40 18.31422 111.69655 38930 ft 496 kts 53°
2026-05-08 18:41 18.35262 111.75691 38931 ft 496 kts 53°
2026-05-08 18:41 18.39074 111.81690 38931 ft 496 kts 53°
2026-05-08 18:42 18.42906 111.87727 38930 ft 496 kts 53°
2026-05-08 18:42 18.46738 111.93768 38950 ft 496 kts 53°
2026-05-08 18:43 18.50550 111.99783 38937 ft 496 kts 53°
2026-05-08 18:43 18.54401 112.05865 38936 ft 497 kts 53°
2026-05-08 18:44 18.58233 112.11924 38938 ft 497 kts 53°
2026-05-08 18:44 18.62061 112.17981 38942 ft 496 kts 54°
2026-05-08 18:45 18.65841 112.24064 38930 ft 497 kts 57°
2026-05-08 18:45 18.69166 112.30462 38939 ft 498 kts 59°
2026-05-08 18:46 18.72389 112.36918 38938 ft 498 kts 60°
2026-05-08 18:46 18.75601 112.43406 38938 ft 499 kts 60°
2026-05-08 18:47 18.78823 112.49905 38939 ft 500 kts 60°
2026-05-08 18:47 18.82047 112.56402 38938 ft 500 kts 60°
2026-05-08 18:48 18.85272 112.62902 38938 ft 500 kts 60°
2026-05-08 18:48 18.88494 112.69404 38939 ft 500 kts 60°
2026-05-08 18:49 18.91713 112.75907 38939 ft 500 kts 60°
2026-05-08 18:49 18.94931 112.82417 38938 ft 500 kts 60°
2026-05-08 18:50 18.98143 112.88923 38941 ft 499 kts 60°
2026-05-08 18:50 19.01361 112.95444 38941 ft 502 kts 59°
2026-05-08 18:51 19.04587 113.01991 38938 ft 502 kts 59°
2026-05-08 18:51 19.07812 113.08542 38939 ft 502 kts 59°
2026-05-08 18:52 19.11032 113.15094 38938 ft 502 kts 59°
2026-05-08 18:52 19.14250 113.21645 38942 ft 502 kts 59°
2026-05-08 18:53 19.17441 113.28149 38935 ft 502 kts 59°
2026-05-08 18:53 19.20651 113.34700 38935 ft 502 kts 60°
2026-05-08 18:54 19.23860 113.41256 38942 ft 502 kts 59°
2026-05-08 18:54 19.27077 113.47833 38941 ft 504 kts 59°
2026-05-08 18:55 19.31910 113.57733 38938 ft 504 kts 59°
2026-05-08 18:56 19.35126 113.64330 38938 ft 504 kts 59°
2026-05-08 18:56 19.38342 113.70933 38940 ft 504 kts 59°
2026-05-08 18:57 19.41556 113.77541 38940 ft 504 kts 59°
2026-05-08 18:57 19.44768 113.84151 38939 ft 505 kts 59°
2026-05-08 18:58 19.47977 113.90764 38943 ft 505 kts 59°
2026-05-08 18:58 19.51188 113.97386 38942 ft 506 kts 59°
2026-05-08 18:59 19.54402 114.04022 38939 ft 506 kts 59°
2026-05-08 18:59 19.57612 114.10659 38944 ft 506 kts 59°
2026-05-08 19:00 19.60275 114.16170 38939 ft 505 kts 59°